Погода в Чикаревке

Россия / Тамбовская область     51°55′31″N   41°35′16″E
темп.,
°C
ветер,
м/с
пор.,
м/с
влажн.,
%
обл.,
%
осадки,
мм/ч
давл.,
гПа
погр.,
м
15 июня, вт
вт1500:00+17в118957 0.2 101411
03:00+16в229294 0.2 101312
06:00+18всв239084 0.0 1013122
09:00+21всв3480100 0.6 1013560
12:00+23св346880 1.1 10121171
15:00+24св446986 2.8 10101137
18:00+21св358498 2.4 1009439
21:00+18св11885 1.6 101011
16 июня, ср
ср1600:00+16ссз22888 0.0 100914
03:00+16сз339115 0.0 100933
06:00+18зсз24895 0.0 1010130
09:00+22сз347341 0.0 1010554
12:00+25зсз34625 0.0 10111385
15:00+25сз556593 0.9 10111321
18:00+23сз467743 1.4 1012473
21:00+19ссз38934 1.4 1014179
17 июня, чт
чт1700:00+17с411960 0.0 1015259
03:00+16ссв512960 0.0 1016322
06:00+16ссв511920 0.0 1018416
09:00+20ссв68712 0.0 1019829
12:00+22св68560 0.0 10201359
15:00+22св79523 0.0 10211337
18:00+21ссв47650 0.0 1021714
21:00+15с49780 0.0 1023169
18 июня, пт
пт1800:00+13ссв49812 0.0 1024154
03:00+12ссв49825 0.0 1025158
06:00+14ссв410820 0.0 1026281
09:00+19св58621 0.0 1027721
12:00+22св685335 0.0 10271675
15:00+22св57513 0.0 10271566
18:00+21св46650 0.0 1027786
21:00+15всв34810 0.0 102849
19 июня, сб
сб1900:00+13в33824 0.0 102927
03:00+12в22844 0.0 103013
06:00+14в22792 0.0 103091
09:00+19вюв22620 0.0 1030581
12:00+22вюв23510 0.0 10291108
15:00+24вюв22500 0.0 10281231
18:00+23вюв11550 0.0 10271053
21:00+17юв11740 0.0 102711